Cosmos 1461 - Orbit

View from above orbital plane
View from above orbital plane
View from above satellite
View from above satellite

Ground track
Ground track

The orbit data is extracted from the following two-line orbital elements,

1 14064U 83044A   13136.76423773  .00002857  00000-0  29309-3 0  1762
2 14064 065.0051 200.1783 0137401 273.9129 228.9003 14.85716890500912
Epoch (UTC): 16 May 2013 18:20:30
Eccentricity: 0.0137401
inclination: 65.0051°
perigee height: 515 km
apogee height: 707 km
right ascension of ascending node: 200.1783°
argument of perigee: 273.9129°
revolutions per day: 14.85716890
mean anomaly at epoch: 228.9003°
orbit number at epoch: 50091

The dashed part of the orbit path shows where the satellite is in the earth's shadow,  

Developed and maintained by Chris Peat, Heavens-Above GmbH. Please read the updated FAQ before sending e-mail. Imprint. DLR